"Pseudo-MPEC" for P115Jmz

Created 2020 Sep 18 10:07:22 UT using Find_Orb

Click here for an explanation of pseudo-MPECs

 
 Astrometry: 
     P115Jmz  C2020 09 10S'd7SSB_Wf,2K3;(!6A.mqa]GYDI2WAstrometry9@HFsj,jLvhxF51
     P115Jmz  C2020 09 10c)ZdsUMAL4$MmHvY$-MxUML3`lD8UMLtG'Gh-[F4)Id'riM=RM*nF51
     P115Jmz  C2020 09 10)j`M\oU.iVi6xPLDredacted;dUGOKOG;/N2aV/9aogCv,.ROxPJF51
     P115Jmz  C2020 09 10NjYclickv?+%@4I2u%(*iS_gq[MYgX=(\lMBFGGAG[j30o;ng_GMF51
     P115Jmz  C2020 09 13rbS,PUG8m?5e=6,KvQ[EmO3,P:2#ec,t'Tf'!+D7qa'WST1hSXfdF51
     P115Jmz  C2020 09 13HZv%7;hCjoQVw-buD36%jXx(G,`?r%A-!GDq5Aa+M=(ZYWXFm]kdF51
     P115Jmz  C2020 09 13pClqORj11/3XS^nNES!5[herevlmB_QgforI!1or`HbbYMqF,$*TF51
     P115Jmz  C2020 09 13S)aTFvjvB]r'h`+Cqo11t6_k6EJuy#$:1$6UT2mMm5gxY8SNIU`CF51
     P115Jmz  C2020 09 13Eyi\D91wp57'n']H9PO,e_xT8'$GA!m@D)7:;-),iwg0OfOl%N=UF51
     P115Jmz  C2020 09 13X?PZfpXohpc)WliFDVLD66sexplanationf?\:@yIxrS2^IkS7;pF51

Station data:
(F51) Pan-STARRS 1, Haleakala  (N20.707235 W156.255910)  US/Hawaii.
   Observers N. Primak, A. Schultz, S. Watters, J. Thiel, T. Goggia. Measurer
   PS1 Science Consortium. 1.8-m Ritchey-Chrétien + CCD.

Orbital elements:  P115Jmz
   Perihelion 2020 Nov 9.006180 +/- 68.6 TT =  0:08:54 (JD 2459162.506180)
Epoch 2020 Sep 13.0 TT = JDT 2459105.5   Earth MOID: 0.3945   Ma: 0.0651
M 345.13110783 +/- 37               (J2000 ecliptic)          AutoNEOCP
n   0.26082947 +/- 0.202            Peri.  235.62740 +/- 57
a   2.42604174 +/- 1.25             Node   136.64587 +/- 2.8
e   0.4681009 +/- 0.251             Incl.   23.55510 +/- 8
P   3.78                   H 20.3   G  0.15   U 11.7  SR
q 1.29040929 +/- 0.214    Q 3.56167418 +/- 20.8
From 10 observations 2020 Sept. 10-13; mean residual 0".16
Residuals in arcseconds: 
200910 F51  .46-  .15-    200913 F51  .14-  .06+    200913 F51  .12+  .12+    
200910 F51  .08-  .05+    200913 F51  .07-  .19-    200913 F51  .03+  .09-    
200910 F51  .30+  .13+    200913 F51  .04+  .10+    
200910 F51  .25+  .04-    200913 F51  .01+  .00     

Ephemerides (geocentric):
Date (UTC) HH   RA              Dec         delta   r     elong  mag " sig PA
---- -- -- --  -------------   -----------  ------ ------ -----  --- ---- ---
2020 09 18 10  19 34 27.786   -35 20 37.61  .64744 1.3938 113.3 21.7  278  59
2020 09 18 11  19 34 30.993   -35 21 44.77  .64759 1.3936 113.2 21.7  282  59
2020 09 18 12  19 34 34.207   -35 22 51.87  .64773 1.3935 113.2 21.7  285  59
2020 09 18 13  19 34 37.429   -35 23 58.91  .64787 1.3933 113.2 21.7  289  59
2020 09 18 14  19 34 40.659   -35 25 05.90  .64801 1.3932 113.1 21.7  293  59
2020 09 18 15  19 34 43.896   -35 26 12.82  .64816 1.3930 113.1 21.7  296  59
2020 09 18 16  19 34 47.140   -35 27 19.68  .64830 1.3929 113.1 21.7  300  59
2020 09 18 17  19 34 50.392   -35 28 26.49  .64844 1.3927 113.0 21.7  303  59
2020 09 18 18  19 34 53.652   -35 29 33.23  .64859 1.3925 113.0 21.7  307  59
2020 09 18 19  19 34 56.919   -35 30 39.91  .64873 1.3924 113.0 21.7  311  59
2020 09 18 20  19 35 00.193   -35 31 46.54  .64888 1.3922 112.9 21.7  314  58
2020 09 18 21  19 35 03.475   -35 32 53.10  .64902 1.3921 112.9 21.7  318  58
2020 09 18 22  19 35 06.765   -35 33 59.60  .64916 1.3919 112.9 21.7  322  58
2020 09 18 23  19 35 10.061   -35 35 06.05  .64931 1.3918 112.8 21.7  326  58
2020 09 19 00  19 35 13.366   -35 36 12.43  .64945 1.3916 112.8 21.7  329  58
2020 09 19 01  19 35 16.678   -35 37 18.76  .64960 1.3915 112.8 21.7  333  58
2020 09 19 02  19 35 19.997   -35 38 25.02  .64974 1.3913 112.7 21.7  337  58
2020 09 19 03  19 35 23.324   -35 39 31.22  .64988 1.3912 112.7 21.7  341  58
2020 09 19 04  19 35 26.658   -35 40 37.37  .65003 1.3910 112.7 21.7  345  58
2020 09 19 05  19 35 30.000   -35 41 43.45  .65017 1.3908 112.6 21.7  349  58
2020 09 19 06  19 35 33.349   -35 42 49.48  .65032 1.3907 112.6 21.7  352  58
2020 09 19 07  19 35 36.706   -35 43 55.44  .65046 1.3905 112.6 21.7  356  58
2020 09 19 08  19 35 40.071   -35 45 01.34  .65061 1.3904 112.5 21.7  360  58
2020 09 19 09  19 35 43.442   -35 46 07.19  .65075 1.3902 112.5 21.7  364  58
2020 09 19 10  19 35 46.822   -35 47 12.97  .65090 1.3901 112.5 21.7  368  58
2020 09 19 11  19 35 50.208   -35 48 18.70  .65104 1.3899 112.4 21.7  372  58
2020 09 19 12  19 35 53.603   -35 49 24.36  .65119 1.3898 112.4 21.7  376  58
2020 09 19 13  19 35 57.004   -35 50 29.96  .65133 1.3896 112.4 21.7  380  58
2020 09 19 14  19 36 00.414   -35 51 35.51  .65148 1.3895 112.3 21.7  384  58
2020 09 19 15  19 36 03.830   -35 52 40.99  .65162 1.3893 112.3 21.7  388  58
2020 09 19 16  19 36 07.254   -35 53 46.41  .65177 1.3891 112.3 21.7  392  58
2020 09 19 17  19 36 10.686   -35 54 51.77  .65192 1.3890 112.2 21.7  396  58
2020 09 19 18  19 36 14.125   -35 55 57.08  .65206 1.3888 112.2 21.7  401  57
2020 09 19 19  19 36 17.572   -35 57 02.32  .65221 1.3887 112.2 21.7  405  57
2020 09 19 20  19 36 21.026   -35 58 07.50  .65235 1.3885 112.1 21.7  409  57
2020 09 19 21  19 36 24.488   -35 59 12.62  .65250 1.3884 112.1 21.7  413  57
2020 09 19 22  19 36 27.957   -36 00 17.68  .65265 1.3882 112.1 21.7  417  57
2020 09 19 23  19 36 31.433   -36 01 22.69  .65279 1.3881 112.0 21.7  421  57
2020 09 20 00  19 36 34.917   -36 02 27.63  .65294 1.3879 112.0 21.7  426  57
2020 09 20 01  19 36 38.409   -36 03 32.51  .65308 1.3878 112.0 21.7  430  57
2020 09 20 02  19 36 41.908   -36 04 37.33  .65323 1.3876 111.9 21.7  434  57
2020 09 20 03  19 36 45.414   -36 05 42.09  .65338 1.3875 111.9 21.7  438  57
2020 09 20 04  19 36 48.928   -36 06 46.79  .65352 1.3873 111.9 21.7  443  57
2020 09 20 05  19 36 52.449   -36 07 51.43  .65367 1.3872 111.8 21.7  447  57
2020 09 20 06  19 36 55.978   -36 08 56.01  .65382 1.3870 111.8 21.7  451  57
2020 09 20 07  19 36 59.515   -36 10 00.52  .65396 1.3869 111.8 21.7  456  57
2020 09 20 08  19 37 03.058   -36 11 04.98  .65411 1.3867 111.7 21.8  460  57
2020 09 20 09  19 37 06.610   -36 12 09.38  .65426 1.3866 111.7 21.8  464  57